Location: Eisingen in Unterfranken
(49.7591°N, 9.8347°E)
Time: 06:36:20
(UTC+01:00)

BlueWalker 3 - Pass Details

Date: 02 December 2022
Orbit: 499 x 517 km, 53.2° (Epoch: 28 January)

Event Time Altitude Azimuth Distance (km) Brightness Sun altitude
Rises 18:32:18 0° 282° (WNW) 2,631 6.8 -20.1°
Reaches altitude 10° 18:34:34 10° 287° (WNW) 1,740 5.6 -20.5°
Maximum altitude 18:38:24 50° 4° (N) 654 2.3 -21.1°
Enters shadow 18:38:27 50° 7° (N) 654 2.3 -21.1°
